Regional Weather Roundup
Issued by NWS

Home | Current Version | Previous Version | Text Only | Print | Product List | Glossary On
Versions: 1 2 3 4 5 6 7 8 9 10 11 12 13 14 15 16 17 18 19 20 21 22 23 24 25 26 27 28 29 30 31 32 33 34 35 36 37 38 39 40 41 42 43 44 45 46 47 48 49 50
000
ASUS43 KOAX 261110
RWRNE

WEATHER ROUNDUP FOR NEBRASKA
NATIONAL WEATHER SERVICE OMAHA NE
500 AM CST FRI DEC 26 2014

NOTES: SATELLITE DATA IS BEING USED TO AUGMENT CLOUD COVER ABOVE
       12000 FEET.
       "FAIR" INDICATES FEW OR NO CLOUDS BELOW 12,000 FEET WITH NO
       SIGNIFICANT WEATHER AND/OR OBSTRUCTIONS TO VISIBILITY.

  * THESE STATIONS DO NOT REPORT WEATHER SUCH AS RAIN...SNOW OR FOG.

NEZ001>004-019>022-054>056-261200-
NEBRASKA PANHANDLE

CITY           SKY/WX    TMP DP  RH WIND       PRES   REMARKS
SCOTTSBLUFF    CLOUDY    17  13  84 CALM      29.98R
ALLIANCE       CLOUDY    15  13  91 N7        29.96R WCI   5
CHADRON        LGT SNOW  20  17  88 NE6       30.02R FOG     WCI  12
KIMBALL        CLOUDY    17  15  93 N8        29.88S WCI   6
SIDNEY         FLURRIES  19  15  84 NE16      29.93R WCI   4
$$

NEZ057>060-069>072-079>082-261200-
SOUTHWEST NEBRASKA

CITY           SKY/WX    TMP DP  RH WIND       PRES   REMARKS
NORTH PLATTE   CLOUDY    24  20  84 N16       29.93S WCI  11
IMPERIAL       CLOUDY    24  19  81 N16       29.94R WCI  11
LEXINGTON      CLOUDY    27  23  83 N21G28    29.93R WCI  14
MCCOOK         CLOUDY    26  21  81 N21G30    29.92F WCI  12
OGALLALA       CLOUDY    23  18  80 N16G22    29.96R WCI  10
$$

NEZ005>010-023>029-035>040-094-261200-
NORTH CENTRAL NEBRASKA

CITY           SKY/WX    TMP DP  RH WIND       PRES   REMARKS
VALENTINE      LGT SNOW  22  19  89 N10       30.02R FOG     WCI  11
AINSWORTH      CLOUDY    23  20  90 N16       29.99R WCI  10
BROKEN BOW     CLOUDY    25  22  88 N22G30    29.91F WCI  10
O`NEILL        CLOUDY    26  25  95 N15       29.97S WCI  14
ORD            CLOUDY    26  22  84 N22       29.93S WCI  12
THEDFORD       CLOUDY    24  22  90 N10G17    29.96F WCI  14
$$

NEZ041-046>049-061>064-073>077-083>087-261200-
SOUTH CENTRAL NEBRASKA

CITY           SKY/WX    TMP DP  RH WIND       PRES   REMARKS
GRAND ISLAND   CLOUDY    28  24  85 N22G28    29.91R WCI  14
AURORA         CLOUDY    29  27  92 N16G22    29.90R WCI  17
HASTINGS       CLOUDY    28  24  85 N17       29.89R WCI  16
HEBRON         CLOUDY    32  29  90 N10G22    29.89R WCI  24
HOLDREGE       CLOUDY    27  24  87 N20G25    29.90R WCI  14
KEARNEY *      CLOUDY    27  21  80 NW22G28   29.91R WCI  12
YORK           CLOUDY    30  28  93 N16G23    29.88R WCI  19
$$

NEZ011>018-030>034-042>045-261200-
NORTHEAST NEBRASKA

CITY           SKY/WX    TMP DP  RH WIND       PRES   REMARKS
NORFOLK        CLOUDY    29  26  89 N17       29.92R WCI  17
ALBION         CLOUDY    28  24  85 N18G24    29.92S WCI  15
BLAIR          CLOUDY    34  32  92 N21G28    29.86R WCI  22
COLUMBUS *     CLOUDY    30  23  74 N17G25    29.91S WCI  18
FREMONT        CLOUDY    33  32  96 NW12      29.89R WCI  24
TEKAMAH        CLOUDY    34  31  88 N21       29.90R WCI  22
WAYNE          CLOUDY    30  28  91 N15       29.93R WCI  19
$$

NEZ050>053-065>068-078-088>093-261200-
SOUTHEAST NEBRASKA

CITY           SKY/WX    TMP DP  RH WIND       PRES   REMARKS
LINCOLN        CLOUDY    33  30  88 N17       29.90R WCI  22
OMAHA EPPLEY   CLOUDY    33  31  92 N18G26    29.88R WCI  22
BEATRICE       CLOUDY    32  32  97 N13       29.87R FOG     WCI  23
FALLS CITY     PTCLDY    33  28  81 NW9       29.83R WCI  25
NEBRASKA CITY  CLOUDY    32  32 100 N14       29.84S FOG     WCI  22
PLATTSMOUTH    CLOUDY    32  31  94 N10       29.85S FOG     WCI  24
$$

NEZ044-045-051>053-067-261200-
OMAHA AREA

CITY           SKY/WX    TMP DP  RH WIND       PRES   REMARKS
OMAHA EPPLEY   CLOUDY    33  31  92 N18G26    29.88R WCI  22
BLAIR          CLOUDY    34  32  92 N21G28    29.86R WCI  22
FREMONT        CLOUDY    33  32  96 NW12      29.89R WCI  24
MILLARD        CLOUDY    35  31  88 N9G22     29.87R WCI  27
OFFUTT AFB     CLOUDY    33  31  92 N8        29.87R WCI  27
PLATTSMOUTH    CLOUDY    32  31  94 N10       29.85S FOG     WCI  24
WAHOO          CLOUDY    33  30  90 N15G23    29.88R WCI  22
$$


USA.gov is the U.S. government's official web portal to all federal, state and local government web resources and services.